owner,sensor,date,latitude,longitude,vertical_datum,sea_water_practical_salinity,qcFlag 
NERRS,ioos:station:NOAA.NERRS:gtmpcwq:1,2013-12-19T17:45:00Z,29.6671,-81.2574,1.73,12.1,1111122 
NERRS,ioos:station:NOAA.NERRS:gtmpcwq:1,2013-12-19T18:45:00Z,29.6671,-81.2574,1.69,12.2,1111122 
NERRS,ioos:station:NOAA.NERRS:gtmpcwq:1,2013-12-19T19:45:00Z,29.6671,-81.2574,1.59,7.9,1111122 
NERRS,ioos:station:NOAA.NERRS:gtmpcwq:1,2013-12-19T20:45:00Z,29.6671,-81.2574,1.5,8.7,1111122 
NERRS,ioos:station:NOAA.NERRS:gtmpcwq:1,2013-12-19T21:45:00Z,29.6671,-81.2574,1.42,6.4,1111122 
NERRS,ioos:station:NOAA.NERRS:gtmpcwq:1,2013-12-19T22:45:00Z,29.6671,-81.2574,1.37,0.7,1111122 
NERRS,ioos:station:NOAA.NERRS:gtmpcwq:1,2013-12-19T23:45:00Z,29.6671,-81.2574,1.31,0.5,1111122 
NERRS,ioos:station:NOAA.NERRS:gtmpcwq:1,2013-12-20T00:45:00Z,29.6671,-81.2574,1.27,0.4,1111122 
NERRS,ioos:station:NOAA.NERRS:gtmpcwq:1,2013-12-20T01:45:00Z,29.6671,-81.2574,1.25,0.3,1111122 
NERRS,ioos:station:NOAA.NERRS:gtmpcwq:1,2013-12-20T02:45:00Z,29.6671,-81.2574,1.32,0.6,1111122 
NERRS,ioos:station:NOAA.NERRS:gtmpcwq:1,2013-12-20T03:45:00Z,29.6671,-81.2574,1.41,1.0,1111122 
NERRS,ioos:station:NOAA.NERRS:gtmpcwq:1,2013-12-20T04:45:00Z,29.6671,-81.2574,1.51,1.4,1111122 
NERRS,ioos:station:NOAA.NERRS:gtmpcwq:1,2013-12-20T05:45:00Z,29.6671,-81.2574,1.57,3.8,1111122 
NERRS,ioos:station:NOAA.NERRS:gtmpcwq:1,2013-12-20T06:45:00Z,29.6671,-81.2574,1.53,7.4,1111122 
NERRS,ioos:station:NOAA.NERRS:gtmpcwq:1,2013-12-20T07:45:00Z,29.6671,-81.2574,1.45,5.7,1111122 
NERRS,ioos:station:NOAA.NERRS:gtmpcwq:1,2013-12-20T08:45:00Z,29.6671,-81.2574,1.39,1.6,1111122 
NERRS,ioos:station:NOAA.NERRS:gtmpcwq:1,2013-12-20T09:45:00Z,29.6671,-81.2574,1.32,0.5,1111122 
NERRS,ioos:station:NOAA.NERRS:gtmpcwq:1,2013-12-20T10:45:00Z,29.6671,-81.2574,1.28,0.3,1111122 
NERRS,ioos:station:NOAA.NERRS:gtmpcwq:1,2013-12-20T11:45:00Z,29.6671,-81.2574,1.24,0.2,1111122 
NERRS,ioos:station:NOAA.NERRS:gtmpcwq:1,2013-12-20T12:45:00Z,29.6671,-81.2574,1.21,0.3,1111122 
NERRS,ioos:station:NOAA.NERRS:gtmpcwq:1,2013-12-20T13:45:00Z,29.6671,-81.2574,1.24,0.2,1111122 
NERRS,ioos:station:NOAA.NERRS:gtmpcwq:1,2013-12-20T14:45:00Z,29.6671,-81.2574,1.32,0.4,1111122 
NERRS,ioos:station:NOAA.NERRS:gtmpcwq:1,2013-12-20T15:45:00Z,29.6671,-81.2574,1.44,0.9,1111122 
NERRS,ioos:station:NOAA.NERRS:gtmpcwq:1,2013-12-20T16:45:00Z,29.6671,-81.2574,1.57,5.3,1111122 
NERRS,ioos:station:NOAA.NERRS:gtmpcwq:1,2013-12-20T17:45:00Z,29.6671,-81.2574,1.67,9.7,1111122 
NERRS,ioos:station:NOAA.NERRS:gtmpcwq:1,2013-12-20T18:45:00Z,29.6671,-81.2574,1.69,11.8,1111122 
NERRS,ioos:station:NOAA.NERRS:gtmpcwq:1,2013-12-20T19:45:00Z,29.6671,-81.2574,1.62,9.8,1111122 
NERRS,ioos:station:NOAA.NERRS:gtmpcwq:1,2013-12-20T20:45:00Z,29.6671,-81.2574,1.53,8.5,1111122 
NERRS,ioos:station:NOAA.NERRS:gtmpcwq:1,2013-12-20T21:45:00Z,29.6671,-81.2574,1.45,7.3,1111122 
NERRS,ioos:station:NOAA.NERRS:gtmpcwq:1,2013-12-20T22:45:00Z,29.6671,-81.2574,1.38,5.2,1111122 
NERRS,ioos:station:NOAA.NERRS:gtmpcwq:1,2013-12-20T23:45:00Z,29.6671,-81.2574,1.32,0.7,1111122 
NERRS,ioos:station:NOAA.NERRS:gtmpcwq:1,2013-12-21T00:45:00Z,29.6671,-81.2574,1.28,0.5,1111122 
NERRS,ioos:station:NOAA.NERRS:gtmpcwq:1,2013-12-21T01:45:00Z,29.6671,-81.2574,1.24,0.7,1111122 
NERRS,ioos:station:NOAA.NERRS:gtmpcwq:1,2013-12-21T02:45:00Z,29.6671,-81.2574,1.28,0.5,1111122 
NERRS,ioos:station:NOAA.NERRS:gtmpcwq:1,2013-12-21T03:45:00Z,29.6671,-81.2574,1.37,0.9,1111122 
NERRS,ioos:station:NOAA.NERRS:gtmpcwq:1,2013-12-21T04:45:00Z,29.6671,-81.2574,1.47,1.5,1111122 
NERRS,ioos:station:NOAA.NERRS:gtmpcwq:1,2013-12-21T05:45:00Z,29.6671,-81.2574,1.56,5.6,1111122 
NERRS,ioos:station:NOAA.NERRS:gtmpcwq:1,2013-12-21T06:45:00Z,29.6671,-81.2574,1.58,9.4,1111122 
NERRS,ioos:station:NOAA.NERRS:gtmpcwq:1,2013-12-21T07:45:00Z,29.6671,-81.2574,1.51,11.2,1111122 
NERRS,ioos:station:NOAA.NERRS:gtmpcwq:1,2013-12-21T08:45:00Z,29.6671,-81.2574,1.44,10.2,1111122 
NERRS,ioos:station:NOAA.NERRS:gtmpcwq:1,2013-12-21T09:45:00Z,29.6671,-81.2574,1.36,9.2,1111122 
NERRS,ioos:station:NOAA.NERRS:gtmpcwq:1,2013-12-21T10:45:00Z,29.6671,-81.2574,1.31,7.9,1111122 
NERRS,ioos:station:NOAA.NERRS:gtmpcwq:1,2013-12-21T11:45:00Z,29.6671,-81.2574,1.26,6.5,1111122 
NERRS,ioos:station:NOAA.NERRS:gtmpcwq:1,2013-12-21T12:45:00Z,29.6671,-81.2574,1.22,4.4,1111122 
NERRS,ioos:station:NOAA.NERRS:gtmpcwq:1,2013-12-21T13:45:00Z,29.6671,-81.2574,1.2,1.9,1111122 
NERRS,ioos:station:NOAA.NERRS:gtmpcwq:1,2013-12-21T14:45:00Z,29.6671,-81.2574,1.25,0.4,1111122 
NERRS,ioos:station:NOAA.NERRS:gtmpcwq:1,2013-12-21T15:45:00Z,29.6671,-81.2574,1.34,0.8,1111122 
NERRS,ioos:station:NOAA.NERRS:gtmpcwq:1,2013-12-21T16:45:00Z,29.6671,-81.2574,1.46,3.9,1111122 
NERRS,ioos:station:NOAA.NERRS:gtmpcwq:1,2013-12-21T17:45:00Z,29.6671,-81.2574,1.57,7.5,1111122 
NERRS,ioos:station:NOAA.NERRS:gtmpcwq:1,2013-12-21T18:45:00Z,29.6671,-81.2574,1.64,10.4,1111122 
NERRS,ioos:station:NOAA.NERRS:gtmpcwq:1,2013-12-21T19:45:00Z,29.6671,-81.2574,1.61,11.0,1111122 
NERRS,ioos:station:NOAA.NERRS:gtmpcwq:1,2013-12-21T20:45:00Z,29.6671,-81.2574,1.53,8.3,1111122 
NERRS,ioos:station:NOAA.NERRS:gtmpcwq:1,2013-12-21T21:45:00Z,29.6671,-81.2574,1.45,7.5,1111122 
NERRS,ioos:station:NOAA.NERRS:gtmpcwq:1,2013-12-21T22:45:00Z,29.6671,-81.2574,1.38,5.8,1111122 
NERRS,ioos:station:NOAA.NERRS:gtmpcwq:1,2013-12-21T23:45:00Z,29.6671,-81.2574,1.32,3.5,1111122 
NERRS,ioos:station:NOAA.NERRS:gtmpcwq:1,2013-12-22T00:45:00Z,29.6671,-81.2574,1.28,0.5,1111122 
NERRS,ioos:station:NOAA.NERRS:gtmpcwq:1,2013-12-22T01:45:00Z,29.6671,-81.2574,1.23,0.5,1111122 
NERRS,ioos:station:NOAA.NERRS:gtmpcwq:1,2013-12-22T02:45:00Z,29.6671,-81.2574,1.21,0.4,1111122 
NERRS,ioos:station:NOAA.NERRS:gtmpcwq:1,2013-12-22T03:45:00Z,29.6671,-81.2574,1.26,0.7,1111122 
NERRS,ioos:station:NOAA.NERRS:gtmpcwq:1,2013-12-22T04:45:00Z,29.6671,-81.2574,1.34,0.7,1111122 
NERRS,ioos:station:NOAA.NERRS:gtmpcwq:1,2013-12-22T05:45:00Z,29.6671,-81.2574,1.44,1.1,1111122 
NERRS,ioos:station:NOAA.NERRS:gtmpcwq:1,2013-12-22T06:45:00Z,29.6671,-81.2574,1.51,3.0,1111122 
NERRS,ioos:station:NOAA.NERRS:gtmpcwq:1,2013-12-22T07:45:00Z,29.6671,-81.2574,1.5,8.2,1111122 
NERRS,ioos:station:NOAA.NERRS:gtmpcwq:1,2013-12-22T08:45:00Z,29.6671,-81.2574,1.43,7.9,1111122 
NERRS,ioos:station:NOAA.NERRS:gtmpcwq:1,2013-12-22T09:45:00Z,29.6671,-81.2574,1.36,5.7,1111122 
NERRS,ioos:station:NOAA.NERRS:gtmpcwq:1,2013-12-22T10:45:00Z,29.6671,-81.2574,1.3,1.1,1111122 
NERRS,ioos:station:NOAA.NERRS:gtmpcwq:1,2013-12-22T11:45:00Z,29.6671,-81.2574,1.25,0.4,1111122 
NERRS,ioos:station:NOAA.NERRS:gtmpcwq:1,2013-12-22T12:45:00Z,29.6671,-81.2574,1.21,0.4,1111122 
NERRS,ioos:station:NOAA.NERRS:gtmpcwq:1,2013-12-22T13:45:00Z,29.6671,-81.2574,1.18,0.3,1111122 
NERRS,ioos:station:NOAA.NERRS:gtmpcwq:1,2013-12-22T14:45:00Z,29.6671,-81.2574,1.17,0.3,1111122 
NERRS,ioos:station:NOAA.NERRS:gtmpcwq:1,2013-12-22T15:45:00Z,29.6671,-81.2574,1.21,0.2,1111122 
NERRS,ioos:station:NOAA.NERRS:gtmpcwq:1,2013-12-22T16:45:00Z,29.6671,-81.2574,1.29,0.5,1111122 
NERRS,ioos:station:NOAA.NERRS:gtmpcwq:1,2013-12-22T17:45:00Z,29.6671,-81.2574,1.39,1.1,1111122 
NERRS,ioos:station:NOAA.NERRS:gtmpcwq:1,2013-12-22T18:45:00Z,29.6671,-81.2574,1.49,6.1,1111122 
NERRS,ioos:station:NOAA.NERRS:gtmpcwq:1,2013-12-22T19:45:00Z,29.6671,-81.2574,1.52,7.6,1111122 
NERRS,ioos:station:NOAA.NERRS:gtmpcwq:1,2013-12-22T20:45:00Z,29.6671,-81.2574,1.47,8.2,1111122 
NERRS,ioos:station:NOAA.NERRS:gtmpcwq:1,2013-12-22T21:45:00Z,29.6671,-81.2574,1.39,7.7,1111122 
NERRS,ioos:station:NOAA.NERRS:gtmpcwq:1,2013-12-22T23:45:00Z,29.6671,-81.2574,1.28,5.6,1111122 
NERRS,ioos:station:NOAA.NERRS:gtmpcwq:1,2013-12-23T19:45:00Z,29.6671,-81.2574,1.38,4.3,1111122 
NERRS,ioos:station:NOAA.NERRS:gtmpcwq:1,2013-12-23T20:45:00Z,29.6671,-81.2574,1.4,7.6,1111122 
NERRS,ioos:station:NOAA.NERRS:gtmpcwq:1,2013-12-23T21:45:00Z,29.6671,-81.2574,1.34,8.1,1111122 
NERRS,ioos:station:NOAA.NERRS:gtmpcwq:1,2013-12-23T22:45:00Z,29.6671,-81.2574,1.29,6.9,1111122 
NERRS,ioos:station:NOAA.NERRS:gtmpcwq:1,2013-12-23T23:45:00Z,29.6671,-81.2574,1.24,7.1,1111122 
NERRS,ioos:station:NOAA.NERRS:gtmpcwq:1,2013-12-24T00:45:00Z,29.6671,-81.2574,1.2,5.1,1111122 
NERRS,ioos:station:NOAA.NERRS:gtmpcwq:1,2013-12-24T01:45:00Z,29.6671,-81.2574,1.17,3.8,1111122 
NERRS,ioos:station:NOAA.NERRS:gtmpcwq:1,2013-12-24T02:45:00Z,29.6671,-81.2574,1.14,3.1,1111122 
NERRS,ioos:station:NOAA.NERRS:gtmpcwq:1,2013-12-24T03:45:00Z,29.6671,-81.2574,1.13,2.9,1111122 
NERRS,ioos:station:NOAA.NERRS:gtmpcwq:1,2013-12-24T04:45:00Z,29.6671,-81.2574,1.12,0.8,1111122 
NERRS,ioos:station:NOAA.NERRS:gtmpcwq:1,2013-12-24T05:45:00Z,29.6671,-81.2574,1.16,0.5,1111122 
NERRS,ioos:station:NOAA.NERRS:gtmpcwq:1,2013-12-24T06:45:00Z,29.6671,-81.2574,1.24,0.6,1111122 
NERRS,ioos:station:NOAA.NERRS:gtmpcwq:1,2013-12-24T07:45:00Z,29.6671,-81.2574,1.33,3.8,1111122 
NERRS,ioos:station:NOAA.NERRS:gtmpcwq:1,2013-12-24T08:45:00Z,29.6671,-81.2574,1.39,7.6,1111122 
NERRS,ioos:station:NOAA.NERRS:gtmpcwq:1,2013-12-24T09:45:00Z,29.6671,-81.2574,1.38,8.7,1111122 
NERRS,ioos:station:NOAA.NERRS:gtmpcwq:1,2013-12-24T10:45:00Z,29.6671,-81.2574,1.32,8.8,1111122 
NERRS,ioos:station:NOAA.NERRS:gtmpcwq:1,2013-12-24T11:45:00Z,29.6671,-81.2574,1.28,8.0,1111122 
NERRS,ioos:station:NOAA.NERRS:gtmpcwq:1,2013-12-24T12:45:00Z,29.6671,-81.2574,1.24,7.7,1111122 
NERRS,ioos:station:NOAA.NERRS:gtmpcwq:1,2013-12-24T13:45:00Z,29.6671,-81.2574,1.21,5.9,1111122 
NERRS,ioos:station:NOAA.NERRS:gtmpcwq:1,2013-12-24T14:45:00Z,29.6671,-81.2574,1.19,4.8,1111122 
NERRS,ioos:station:NOAA.NERRS:gtmpcwq:1,2013-12-24T16:45:00Z,29.6671,-81.2574,1.18,2.5,1111122 
NERRS,ioos:station:NOAA.NERRS:gtmpcwq:1,2013-12-24T17:45:00Z,29.6671,-81.2574,1.22,0.8,1111122 
NERRS,ioos:station:NOAA.NERRS:gtmpcwq:1,2013-12-24T18:45:00Z,29.6671,-81.2574,1.29,1.7,1111122 
NERRS,ioos:station:NOAA.NERRS:gtmpcwq:1,2013-12-24T19:45:00Z,29.6671,-81.2574,1.39,3.0,1111122 
NERRS,ioos:station:NOAA.NERRS:gtmpcwq:1,2013-12-24T20:45:00Z,29.6671,-81.2574,1.47,5.1,1111122 
NERRS,ioos:station:NOAA.NERRS:gtmpcwq:1,2013-12-24T21:45:00Z,29.6671,-81.2574,1.48,8.0,1111122 
NERRS,ioos:station:NOAA.NERRS:gtmpcwq:1,2013-12-24T23:45:00Z,29.6671,-81.2574,1.37,7.1,1111122 
NERRS,ioos:station:NOAA.NERRS:gtmpcwq:1,2013-12-25T00:45:00Z,29.6671,-81.2574,1.32,6.1,1111122 
NERRS,ioos:station:NOAA.NERRS:gtmpcwq:1,2013-12-25T01:45:00Z,29.6671,-81.2574,1.27,5.7,1111122 
NERRS,ioos:station:NOAA.NERRS:gtmpcwq:1,2013-12-25T02:45:00Z,29.6671,-81.2574,1.23,4.6,1111122 
NERRS,ioos:station:NOAA.NERRS:gtmpcwq:1,2013-12-25T03:45:00Z,29.6671,-81.2574,1.21,3.4,1111122 
NERRS,ioos:station:NOAA.NERRS:gtmpcwq:1,2013-12-25T04:45:00Z,29.6671,-81.2574,1.19,3.2,1111122 
NERRS,ioos:station:NOAA.NERRS:gtmpcwq:1,2013-12-25T05:45:00Z,29.6671,-81.2574,1.22,0.5,1111122 
NERRS,ioos:station:NOAA.NERRS:gtmpcwq:1,2013-12-25T06:45:00Z,29.6671,-81.2574,1.28,1.9,1111122 
NERRS,ioos:station:NOAA.NERRS:gtmpcwq:1,2013-12-25T07:45:00Z,29.6671,-81.2574,1.37,1.6,1111122 
NERRS,ioos:station:NOAA.NERRS:gtmpcwq:1,2013-12-25T08:45:00Z,29.6671,-81.2574,1.48,3.2,1111122 
NERRS,ioos:station:NOAA.NERRS:gtmpcwq:1,2013-12-25T09:45:00Z,29.6671,-81.2574,1.55,4.4,1111122 
NERRS,ioos:station:NOAA.NERRS:gtmpcwq:1,2013-12-25T10:45:00Z,29.6671,-81.2574,1.53,5.7,1111122 
NERRS,ioos:station:NOAA.NERRS:gtmpcwq:1,2013-12-25T11:45:00Z,29.6671,-81.2574,1.46,4.1,1111122 
NERRS,ioos:station:NOAA.NERRS:gtmpcwq:1,2013-12-25T12:45:00Z,29.6671,-81.2574,1.4,4.1,1111122 
NERRS,ioos:station:NOAA.NERRS:gtmpcwq:1,2013-12-25T13:45:00Z,29.6671,-81.2574,1.34,4.7,1111122 
NERRS,ioos:station:NOAA.NERRS:gtmpcwq:1,2013-12-25T14:45:00Z,29.6671,-81.2574,1.3,4.2,1111122 
NERRS,ioos:station:NOAA.NERRS:gtmpcwq:1,2013-12-25T15:45:00Z,29.6671,-81.2574,1.26,3.4,1111122 
NERRS,ioos:station:NOAA.NERRS:gtmpcwq:1,2013-12-25T16:45:00Z,29.6671,-81.2574,1.28,1.7,1111122 
NERRS,ioos:station:NOAA.NERRS:gtmpcwq:1,2013-12-25T17:45:00Z,29.6671,-81.2574,1.33,1.9,1111122 
NERRS,ioos:station:NOAA.NERRS:gtmpcwq:1,2013-12-25T18:45:00Z,29.6671,-81.2574,1.41,2.5,1111122 
NERRS,ioos:station:NOAA.NERRS:gtmpcwq:1,2013-12-25T19:45:00Z,29.6671,-81.2574,1.52,3.7,1111122 
NERRS,ioos:station:NOAA.NERRS:gtmpcwq:1,2013-12-25T20:45:00Z,29.6671,-81.2574,1.62,6.8,1111122 
NERRS,ioos:station:NOAA.NERRS:gtmpcwq:1,2013-12-25T21:45:00Z,29.6671,-81.2574,1.67,11.2,1111122 
NERRS,ioos:station:NOAA.NERRS:gtmpcwq:1,2013-12-25T22:45:00Z,29.6671,-81.2574,1.66,12.6,1111122 
NERRS,ioos:station:NOAA.NERRS:gtmpcwq:1,2013-12-25T23:45:00Z,29.6671,-81.2574,1.58,12.4,1111122 
NERRS,ioos:station:NOAA.NERRS:gtmpcwq:1,2013-12-26T00:45:00Z,29.6671,-81.2574,1.5,11.3,1111122 
NERRS,ioos:station:NOAA.NERRS:gtmpcwq:1,2013-12-26T01:45:00Z,29.6671,-81.2574,1.43,10.6,1111122 
NERRS,ioos:station:NOAA.NERRS:gtmpcwq:1,2013-12-26T02:45:00Z,29.6671,-81.2574,1.36,9.1,1111122 
NERRS,ioos:station:NOAA.NERRS:gtmpcwq:1,2013-12-26T03:45:00Z,29.6671,-81.2574,1.31,7.9,1111122 
NERRS,ioos:station:NOAA.NERRS:gtmpcwq:1,2013-12-26T04:45:00Z,29.6671,-81.2574,1.28,5.4,1111122 
NERRS,ioos:station:NOAA.NERRS:gtmpcwq:1,2013-12-26T05:45:00Z,29.6671,-81.2574,1.31,2.1,1111122 
NERRS,ioos:station:NOAA.NERRS:gtmpcwq:1,2013-12-26T06:45:00Z,29.6671,-81.2574,1.4,2.8,1111122 
NERRS,ioos:station:NOAA.NERRS:gtmpcwq:1,2013-12-26T07:45:00Z,29.6671,-81.2574,1.52,9.7,1111122 
NERRS,ioos:station:NOAA.NERRS:gtmpcwq:1,2013-12-26T08:45:00Z,29.6671,-81.2574,1.64,9.6,1111122 
NERRS,ioos:station:NOAA.NERRS:gtmpcwq:1,2013-12-26T09:45:00Z,29.6671,-81.2574,1.72,15.0,1111122 
NERRS,ioos:station:NOAA.NERRS:gtmpcwq:1,2013-12-26T10:45:00Z,29.6671,-81.2574,1.75,15.6,1111122 
NERRS,ioos:station:NOAA.NERRS:gtmpcwq:1,2013-12-26T11:45:00Z,29.6671,-81.2574,1.72,15.5,1111122 
NERRS,ioos:station:NOAA.NERRS:gtmpcwq:1,2013-12-26T12:45:00Z,29.6671,-81.2574,1.65,13.4,1111122 
NERRS,ioos:station:NOAA.NERRS:gtmpcwq:1,2013-12-26T13:45:00Z,29.6671,-81.2574,1.57,10.4,1111122 
NERRS,ioos:station:NOAA.NERRS:gtmpcwq:1,2013-12-26T14:45:00Z,29.6671,-81.2574,1.49,12.2,1111122 
NERRS,ioos:station:NOAA.NERRS:gtmpcwq:1,2013-12-26T15:45:00Z,29.6671,-81.2574,1.42,11.0,1111122 
NERRS,ioos:station:NOAA.NERRS:gtmpcwq:1,2013-12-26T16:45:00Z,29.6671,-81.2574,1.37,8.0,1111122 
NERRS,ioos:station:NOAA.NERRS:gtmpcwq:1,2013-12-26T17:45:00Z,29.6671,-81.2574,1.35,6.5,1111122 
NERRS,ioos:station:NOAA.NERRS:gtmpcwq:1,2013-12-26T18:45:00Z,29.6671,-81.2574,1.41,3.9,1111122 
NERRS,ioos:station:NOAA.NERRS:gtmpcwq:1,2013-12-26T19:45:00Z,29.6671,-81.2574,1.51,5.2,1111122 
NERRS,ioos:station:NOAA.NERRS:gtmpcwq:1,2013-12-26T20:45:00Z,29.6671,-81.2574,1.62,8.2,1111122 
NERRS,ioos:station:NOAA.NERRS:gtmpcwq:1,2013-12-26T21:45:00Z,29.6671,-81.2574,1.71,10.1,1111122 
NERRS,ioos:station:NOAA.NERRS:gtmpcwq:1,2013-12-26T22:45:00Z,29.6671,-81.2574,1.75,13.0,1111122 
NERRS,ioos:station:NOAA.NERRS:gtmpcwq:1,2013-12-26T23:45:00Z,29.6671,-81.2574,1.72,13.8,1111122 
NERRS,ioos:station:NOAA.NERRS:gtmpcwq:1,2013-12-27T00:45:00Z,29.6671,-81.2574,1.65,9.8,1111122 
NERRS,ioos:station:NOAA.NERRS:gtmpcwq:1,2013-12-27T01:45:00Z,29.6671,-81.2574,1.57,8.0,1111122 
NERRS,ioos:station:NOAA.NERRS:gtmpcwq:1,2013-12-27T02:45:00Z,29.6671,-81.2574,1.49,9.0,1111122 
NERRS,ioos:station:NOAA.NERRS:gtmpcwq:1,2013-12-27T03:45:00Z,29.6671,-81.2574,1.41,8.8,1111122 
NERRS,ioos:station:NOAA.NERRS:gtmpcwq:1,2013-12-27T04:45:00Z,29.6671,-81.2574,1.35,7.4,1111122 
NERRS,ioos:station:NOAA.NERRS:gtmpcwq:1,2013-12-27T06:45:00Z,29.6671,-81.2574,1.36,3.0,1111122 
NERRS,ioos:station:NOAA.NERRS:gtmpcwq:1,2013-12-27T07:45:00Z,29.6671,-81.2574,1.46,4.6,1111122 
NERRS,ioos:station:NOAA.NERRS:gtmpcwq:1,2013-12-27T08:45:00Z,29.6671,-81.2574,1.58,7.6,1111122 
NERRS,ioos:station:NOAA.NERRS:gtmpcwq:1,2013-12-27T09:45:00Z,29.6671,-81.2574,1.7,9.8,1111122 
NERRS,ioos:station:NOAA.NERRS:gtmpcwq:1,2013-12-27T10:45:00Z,29.6671,-81.2574,1.79,13.3,1111122 
NERRS,ioos:station:NOAA.NERRS:gtmpcwq:1,2013-12-27T11:45:00Z,29.6671,-81.2574,1.82,16.1,1111122 
NERRS,ioos:station:NOAA.NERRS:gtmpcwq:1,2013-12-27T12:45:00Z,29.6671,-81.2574,1.82,17.9,1111122 
NERRS,ioos:station:NOAA.NERRS:gtmpcwq:1,2013-12-27T13:45:00Z,29.6671,-81.2574,1.76,14.4,1111122 
NERRS,ioos:station:NOAA.NERRS:gtmpcwq:1,2013-12-27T14:45:00Z,29.6671,-81.2574,1.67,10.1,1111122 
NERRS,ioos:station:NOAA.NERRS:gtmpcwq:1,2013-12-27T15:45:00Z,29.6671,-81.2574,1.58,7.1,1111122 
NERRS,ioos:station:NOAA.NERRS:gtmpcwq:1,2013-12-27T16:45:00Z,29.6671,-81.2574,1.5,5.5,1111122 
NERRS,ioos:station:NOAA.NERRS:gtmpcwq:1,2013-12-27T17:45:00Z,29.6671,-81.2574,1.43,5.6,1111122 
NERRS,ioos:station:NOAA.NERRS:gtmpcwq:1,2013-12-27T18:45:00Z,29.6671,-81.2574,1.41,4.8,1111122 
NERRS,ioos:station:NOAA.NERRS:gtmpcwq:1,2013-12-27T19:45:00Z,29.6671,-81.2574,1.47,5.4,1111122 
NERRS,ioos:station:NOAA.NERRS:gtmpcwq:1,2013-12-27T20:45:00Z,29.6671,-81.2574,1.57,6.2,1111122 
NERRS,ioos:station:NOAA.NERRS:gtmpcwq:1,2013-12-27T21:45:00Z,29.6671,-81.2574,1.68,9.1,1111122 
NERRS,ioos:station:NOAA.NERRS:gtmpcwq:1,2013-12-27T22:45:00Z,29.6671,-81.2574,1.76,12.2,1111122 
NERRS,ioos:station:NOAA.NERRS:gtmpcwq:1,2013-12-27T23:45:00Z,29.6671,-81.2574,1.79,13.9,1111122 
NERRS,ioos:station:NOAA.NERRS:gtmpcwq:1,2013-12-28T00:45:00Z,29.6671,-81.2574,1.76,14.7,1111122 
NERRS,ioos:station:NOAA.NERRS:gtmpcwq:1,2013-12-28T01:45:00Z,29.6671,-81.2574,1.69,11.2,1111122 
NERRS,ioos:station:NOAA.NERRS:gtmpcwq:1,2013-12-28T02:45:00Z,29.6671,-81.2574,1.6,7.7,1111122 
NERRS,ioos:station:NOAA.NERRS:gtmpcwq:1,2013-12-28T03:45:00Z,29.6671,-81.2574,1.52,9.6,1111122 
NERRS,ioos:station:NOAA.NERRS:gtmpcwq:1,2013-12-28T04:45:00Z,29.6671,-81.2574,1.44,9.0,1111122 
NERRS,ioos:station:NOAA.NERRS:gtmpcwq:1,2013-12-28T05:45:00Z,29.6671,-81.2574,1.38,7.0,1111122 
NERRS,ioos:station:NOAA.NERRS:gtmpcwq:1,2013-12-28T06:45:00Z,29.6671,-81.2574,1.36,5.2,1111122 
NERRS,ioos:station:NOAA.NERRS:gtmpcwq:1,2013-12-28T07:45:00Z,29.6671,-81.2574,1.43,4.2,1111122 
NERRS,ioos:station:NOAA.NERRS:gtmpcwq:1,2013-12-28T08:45:00Z,29.6671,-81.2574,1.54,5.6,1111122 
NERRS,ioos:station:NOAA.NERRS:gtmpcwq:1,2013-12-28T09:45:00Z,29.6671,-81.2574,1.67,9.3,1111122 
NERRS,ioos:station:NOAA.NERRS:gtmpcwq:1,2013-12-28T10:45:00Z,29.6671,-81.2574,1.77,10.7,1111122 
NERRS,ioos:station:NOAA.NERRS:gtmpcwq:1,2013-12-28T11:45:00Z,29.6671,-81.2574,1.85,14.9,1111122 
NERRS,ioos:station:NOAA.NERRS:gtmpcwq:1,2013-12-28T12:45:00Z,29.6671,-81.2574,1.89,19.2,1111122 
NERRS,ioos:station:NOAA.NERRS:gtmpcwq:1,2013-12-28T13:45:00Z,29.6671,-81.2574,1.88,21.9,1111122 
NERRS,ioos:station:NOAA.NERRS:gtmpcwq:1,2013-12-28T14:45:00Z,29.6671,-81.2574,1.82,19.1,1111122 
NERRS,ioos:station:NOAA.NERRS:gtmpcwq:1,2013-12-28T15:45:00Z,29.6671,-81.2574,1.74,12.1,1111122 
NERRS,ioos:station:NOAA.NERRS:gtmpcwq:1,2013-12-28T16:45:00Z,29.6671,-81.2574,1.63,8.1,1111122 
NERRS,ioos:station:NOAA.NERRS:gtmpcwq:1,2013-12-28T17:45:00Z,29.6671,-81.2574,1.53,5.7,1111122 
NERRS,ioos:station:NOAA.NERRS:gtmpcwq:1,2013-12-28T18:45:00Z,29.6671,-81.2574,1.44,4.6,1111122 
NERRS,ioos:station:NOAA.NERRS:gtmpcwq:1,2013-12-28T19:45:00Z,29.6671,-81.2574,1.39,4.6,1111122 
NERRS,ioos:station:NOAA.NERRS:gtmpcwq:1,2013-12-28T20:45:00Z,29.6671,-81.2574,1.45,4.3,1111122 
NERRS,ioos:station:NOAA.NERRS:gtmpcwq:1,2013-12-28T21:45:00Z,29.6671,-81.2574,1.56,7.8,1111122 
NERRS,ioos:station:NOAA.NERRS:gtmpcwq:1,2013-12-28T22:45:00Z,29.6671,-81.2574,1.67,9.3,1111122 
NERRS,ioos:station:NOAA.NERRS:gtmpcwq:1,2013-12-28T23:45:00Z,29.6671,-81.2574,1.74,14.0,1111122 
NERRS,ioos:station:NOAA.NERRS:gtmpcwq:1,2013-12-29T00:45:00Z,29.6671,-81.2574,1.76,15.2,1111122 
NERRS,ioos:station:NOAA.NERRS:gtmpcwq:1,2013-12-29T01:45:00Z,29.6671,-81.2574,1.71,14.5,1111122 
NERRS,ioos:station:NOAA.NERRS:gtmpcwq:1,2013-12-29T02:45:00Z,29.6671,-81.2574,1.63,11.2,1111122 
NERRS,ioos:station:NOAA.NERRS:gtmpcwq:1,2013-12-29T03:45:00Z,29.6671,-81.2574,1.53,6.7,1111122 
NERRS,ioos:station:NOAA.NERRS:gtmpcwq:1,2013-12-29T04:45:00Z,29.6671,-81.2574,1.44,5.7,1111122 
NERRS,ioos:station:NOAA.NERRS:gtmpcwq:1,2013-12-29T05:45:00Z,29.6671,-81.2574,1.36,6.3,1111122 
NERRS,ioos:station:NOAA.NERRS:gtmpcwq:1,2013-12-29T06:45:00Z,29.6671,-81.2574,1.29,4.7,1111122 
NERRS,ioos:station:NOAA.NERRS:gtmpcwq:1,2013-12-29T07:45:00Z,29.6671,-81.2574,1.24,3.6,1111122 
NERRS,ioos:station:NOAA.NERRS:gtmpcwq:1,2013-12-29T08:45:00Z,29.6671,-81.2574,1.28,2.3,1111122 
NERRS,ioos:station:NOAA.NERRS:gtmpcwq:1,2013-12-29T09:45:00Z,29.6671,-81.2574,1.38,3.9,1111122 
NERRS,ioos:station:NOAA.NERRS:gtmpcwq:1,2013-12-29T10:45:00Z,29.6671,-81.2574,1.52,8.4,1111122 
NERRS,ioos:station:NOAA.NERRS:gtmpcwq:1,2013-12-29T11:45:00Z,29.6671,-81.2574,1.66,12.6,1111122 
NERRS,ioos:station:NOAA.NERRS:gtmpcwq:1,2013-12-29T12:45:00Z,29.6671,-81.2574,1.74,14.1,1111122 
NERRS,ioos:station:NOAA.NERRS:gtmpcwq:1,2013-12-29T13:45:00Z,29.6671,-81.2574,1.78,18.8,1111122 
NERRS,ioos:station:NOAA.NERRS:gtmpcwq:1,2013-12-29T14:45:00Z,29.6671,-81.2574,1.74,19.7,1111122 
NERRS,ioos:station:NOAA.NERRS:gtmpcwq:1,2013-12-29T15:45:00Z,29.6671,-81.2574,1.67,15.7,1111122 
NERRS,ioos:station:NOAA.NERRS:gtmpcwq:1,2013-12-29T16:45:00Z,29.6671,-81.2574,1.57,9.9,1111122 
NERRS,ioos:station:NOAA.NERRS:gtmpcwq:1,2013-12-29T17:45:00Z,29.6671,-81.2574,1.47,6.1,1111122 
NERRS,ioos:station:NOAA.NERRS:gtmpcwq:1,2013-12-29T18:45:00Z,29.6671,-81.2574,1.36,4.3,1111122 
NERRS,ioos:station:NOAA.NERRS:gtmpcwq:1,2013-12-29T19:45:00Z,29.6671,-81.2574,1.28,3.1,1111122 
NERRS,ioos:station:NOAA.NERRS:gtmpcwq:1,2013-12-29T20:45:00Z,29.6671,-81.2574,1.23,3.6,1111122 
NERRS,ioos:station:NOAA.NERRS:gtmpcwq:1,2013-12-29T21:45:00Z,29.6671,-81.2574,1.22,3.2,1111122 
NERRS,ioos:station:NOAA.NERRS:gtmpcwq:1,2013-12-29T22:45:00Z,29.6671,-81.2574,1.31,4.0,1111122 
NERRS,ioos:station:NOAA.NERRS:gtmpcwq:1,2013-12-29T23:45:00Z,29.6671,-81.2574,1.43,5.2,1111122 
NERRS,ioos:station:NOAA.NERRS:gtmpcwq:1,2013-12-30T00:45:00Z,29.6671,-81.2574,1.53,12.0,1111122 
NERRS,ioos:station:NOAA.NERRS:gtmpcwq:1,2013-12-30T01:45:00Z,29.6671,-81.2574,1.56,16.4,1111122 
NERRS,ioos:station:NOAA.NERRS:gtmpcwq:1,2013-12-30T02:45:00Z,29.6671,-81.2574,1.49,16.7,1111122 
NERRS,ioos:station:NOAA.NERRS:gtmpcwq:1,2013-12-30T03:45:00Z,29.6671,-81.2574,1.41,15.4,1111122 
NERRS,ioos:station:NOAA.NERRS:gtmpcwq:1,2013-12-30T04:45:00Z,29.6671,-81.2574,1.34,13.9,1111122 
NERRS,ioos:station:NOAA.NERRS:gtmpcwq:1,2013-12-30T05:45:00Z,29.6671,-81.2574,1.28,13.2,1111122 
NERRS,ioos:station:NOAA.NERRS:gtmpcwq:1,2013-12-30T06:45:00Z,29.6671,-81.2574,1.22,12.4,1111122 
NERRS,ioos:station:NOAA.NERRS:gtmpcwq:1,2013-12-30T07:45:00Z,29.6671,-81.2574,1.18,9.4,1111122 
NERRS,ioos:station:NOAA.NERRS:gtmpcwq:1,2013-12-30T09:45:00Z,29.6671,-81.2574,1.17,4.9,1111122 
NERRS,ioos:station:NOAA.NERRS:gtmpcwq:1,2013-12-30T10:45:00Z,29.6671,-81.2574,1.25,4.5,1111122 
NERRS,ioos:station:NOAA.NERRS:gtmpcwq:1,2013-12-30T11:45:00Z,29.6671,-81.2574,1.39,11.3,1111122 
NERRS,ioos:station:NOAA.NERRS:gtmpcwq:1,2013-12-30T12:45:00Z,29.6671,-81.2574,1.56,12.4,1111122 
NERRS,ioos:station:NOAA.NERRS:gtmpcwq:1,2013-12-30T13:45:00Z,29.6671,-81.2574,1.69,16.7,1111122 
NERRS,ioos:station:NOAA.NERRS:gtmpcwq:1,2013-12-30T14:45:00Z,29.6671,-81.2574,1.75,19.0,1111122 
NERRS,ioos:station:NOAA.NERRS:gtmpcwq:1,2013-12-30T15:45:00Z,29.6671,-81.2574,1.71,19.5,1111122 
NERRS,ioos:station:NOAA.NERRS:gtmpcwq:1,2013-12-30T16:45:00Z,29.6671,-81.2574,1.62,16.8,1111122 
NERRS,ioos:station:NOAA.NERRS:gtmpcwq:1,2013-12-30T17:45:00Z,29.6671,-81.2574,1.52,15.2,1111122 
NERRS,ioos:station:NOAA.NERRS:gtmpcwq:1,2013-12-30T18:45:00Z,29.6671,-81.2574,1.43,14.4,1111122 
NERRS,ioos:station:NOAA.NERRS:gtmpcwq:1,2013-12-30T19:45:00Z,29.6671,-81.2574,1.36,13.2,1111122 
NERRS,ioos:station:NOAA.NERRS:gtmpcwq:1,2013-12-30T20:45:00Z,29.6671,-81.2574,1.3,10.6,1111122 
NERRS,ioos:station:NOAA.NERRS:gtmpcwq:1,2013-12-30T21:45:00Z,29.6671,-81.2574,1.25,8.8,1111122 
NERRS,ioos:station:NOAA.NERRS:gtmpcwq:1,2013-12-30T23:45:00Z,29.6671,-81.2574,1.37,4.7,1111122 
NERRS,ioos:station:NOAA.NERRS:gtmpcwq:1,2013-12-31T00:45:00Z,29.6671,-81.2574,1.49,9.0,1111122 
NERRS,ioos:station:NOAA.NERRS:gtmpcwq:1,2013-12-31T01:45:00Z,29.6671,-81.2574,1.6,11.8,1111122 